www.pogodaiklimat.ru

Погода и климат >> Архив погоды >> Россия >> Якутия >> Усть-Нера


ПОГОДА в Усть-Нере

  • Прогноз погоды в Усть-Нере
  • Монитор погоды в Усть-Нере
  • Климат города

АРХИВ ПОГОДЫ в Усть-Нере

Время (UTC), дата Ветер
(напр.,м/с)
 
Видим.   Явления Облачность Т
(С)
Тd
(С)
f
(%)
Тe
(С)
Тes
(С)
Комфортность P
(гПа)
Po
(гПа)
Тmin
(С)
Tmax
(С)
R
(мм)
R24
(мм)
S
(см)
09 18.04 СЗ 2 50 км 10/6 1410 м
[Sc Ac und]
-1.8 -8.3 61 -5 -5 1014.8 950.9 +1.1
12 18.04 штиль 0 10 км 10/4 1500 м
[Sc Ac und]
-6.2 -10.7 70 -7 -7 1017.3 952.2
15 18.04 штиль 0 10 км 10/4 1500 м
[Sc Ac und]
-6.2 -10.7 70 -7 -7 1017.3 952.2
18 18.04 штиль 0 20 км 10/3 1500 м
[Sc Ac und]
-10.3 -13.9 75 -11 -11 1020.9 954.6
21 18.04 штиль 0 50 км 8/5 1500 м
[Sc Ac trans]
-10.0 -12.0 85 -10 -10 1022.0 955.6 -12.7 23
00 19.04 Ю 2 50 км 6/3 1500 м
[Sc Ci fib]
-1.9 -6.4 71 -6 -2 1020.3 956.0
03 19.04 СВ 3 50 км 6/3 1500 м
[Sc Ci fib]
+1.2 -8.0 50 -3 +2 1018.9 955.4
06 19.04 ЮВ 4 50 км 10/5 1500 м
[Sc Cs]
+0.8 -9.6 46 -4 -2 1018.4 954.8
09 19.04 СВ 2 50 км 10/3 1500 м
[Sc Cs]
-1.1 -8.7 56 -4 -4 1018.7 955.1 +1.7
12 19.04 штиль 0 10 км 10/4 1500 м
[Sc Cs]
-4.3 -9.8 65 -5 -5 1020.2 955.4
15 19.04 штиль 0 10 км 10/0
[Cs]
-8.6 -12.4 74 -9 -9 1021.7 955.7
18 19.04 штиль 0 20 км 10/0
[Cs]
-12.5 -15.2 80 -13 -13 1023.2 956.1
21 19.04 штиль 0 50 км 3/0
[Ci fib]
-10.6 -12.6 85 -11 -9 1023.4 956.8 -14.9 23
00 20.04 СВ 2 50 км 8/0
[Ci fib]
-1.9 -7.6 65 -5 -0 1020.6 956.3
03 20.04 В 2 50 км 6/0
[Ci fib]
+1.9 -7.0 52 -1 +7 1017.7 954.5
06 20.04 В 2 50 км 3/3 1500 м
[Sc]
+2.4 -11.0 36 0 +3 1016.5 953.4
09 20.04 СВ 1 50 км 4/3 1500 м
[Sc Ac trans]
+1.0 -9.3 46 0 0 1016.5 953.1 +3.3
12 20.04 штиль 0 10 км ясно -7.2 -12.5 66 -8 -8 1020.1 954.5
15 20.04 штиль 0 10 км ясно -10.1 -13.7 75 -10 -10 1021.2 954.9
18 20.04 СВ 1 20 км ясно -13.7 -17.2 75 -16 -16 1022.9 955.6
21 20.04 СВ 4 50 км ясно -10.3 -13.1 80 -17 -16 1022.7 956.3 -15.1 13
00 21.04 СВ 4 50 км ясно -2.3 -7.3 69 -8 -4 1020.0 955.6
03 21.04 СВ 6 50 км 3/0
[Ci fib]
+1.6 -6.6 54 -4 -1 1018.3 954.9
06 21.04 В 4 50 км 6/0
[Ci fib]
+2.6 -8.1 45 -1 +1 1017.4 954.3
09 21.04 СВ 4 50 км 3/0
[Ci fib]
+1.3 -7.9 50 -3 -3 1018.1 954.6 +3.2
12 21.04 СВ 3 10 км 1/0
[Ci fib]
-3.1 -10.1 58 -8 -8 1020.1 955.5
15 21.04 СВ 3 10 км ясно -7.2 -11.5 71 -13 -13 1022.2 956.5
18 21.04 СВ 3 20 км 4/0
[Ci fib]
-10.1 -12.9 80 -16 -16 1024.0 957.5
21 21.04 СВ 2 50 км 10/0
[Ci fib]
-8.6 -11.4 80 -13 -12 1024.7 958.5 -10.8 7
00 22.04 СВ 3 50 км 10/0
[Ci fib]
-2.0 -7.3 67 -7 -2 1022.5 958.1
03 22.04 СВ 3 50 км 10/0
[Ci fib]
+4.3 -3.9 55 +1 +7 1020.2 957.4
06 22.04 В 3 50 км 8/0
[Ci fib]
+5.5 -6.5 42 +3 +6 1019.7 957.1
09 22.04 В 1 50 км 6/0
[Ci fib]
+4.3 -5.9 47 +4 +4 1020.5 957.5 +6.0
12 22.04 штиль 0 10 км 3/0
[Ci fib]
-3.0 -9.5 61 -4 -4 1022.8 957.5
15 22.04 штиль 0 10 км 4/0
[Ci fib]
-6.0 -10.8 69 -7 -7 1025.1 959.6
18 22.04 штиль 0 20 км ясно -9.8 -13.4 75 -10 -10 1027.1 960.5
21 22.04 штиль 0 50 км ясно -6.3 -9.0 81 -7 -5 1027.5 961.7 -10.1
00 23.04 СВ 3 50 км ясно +0.7 -5.8 62 -3 +2 1025.6 961.5
03 23.04 В 4 50 км ясно +5.1 -5.0 48 +2 +8 1023.3 960.4
06 23.04 В 4 50 км ясно +8.2 -5.3 38 +6 +9 1022.2 960.0
09 23.04 В 4 50 км ясно +7.8 -1.1 53 +5 +5 1022.4 960.2 +8.7
12 23.04 СВ 4 20 км ясно -0.2 -5.0 70 -5 -5 1025.3 961.1
15 23.04 В 1 10 км ясно -4.1 -7.8 75 -6 -6 1027.4 962.1
18 23.04 СВ 1 50 км ясно -8.8 -11.7 79 -11 -11 1029.6 963.1
21 23.04 В 2 50 км ясно -5.8 -8.0 84 -10 -8 1029.4 963.6 -9.7 0
00 24.04 СВ 2 50 км 3/0
[Ci fib]
+3.7 -2.6 63 +1 +8 1025.9 962.5
03 24.04 штиль 0 50 км 9/0
[Ci fib]
+7.4 -2.7 49 +7 +17 опасность
простуды
1023.2 960.8
06 24.04 З 1 50 км 8/0
[Ci fib]
+9.2 -4.0 39 +9 +14 1020.9 959.0
09 24.04 З 2 50 км ясно +8.1 -2.7 46 +7 +7 1020.1 958.0 +10.6
12 24.04 З 2 20 км ясно -2.1 -7.4 67 -6 -6 1022.1 957.7
15 24.04 штиль 0 10 км ясно -5.3 -9.9 70 -6 -6 1022.8 957.5
18 24.04 штиль 0 50 км 3/3 1500 м
[Sc]
-8.4 -11.2 80 -9 -9 1023.3 957.3
21 24.04 штиль 0 50 км 8/5 1500 м
[Sc Ac trans]
-4.1 -6.4 84 -5 -4 1021.6 956.8 -9.2 0
00 25.04 З 4 50 км 4/1 1500 м
[Sc Ci fib]
+2.2 -3.1 68 -2 +2 1018.4 955.2
03 25.04 ЮЗ 5 50 км 4/4 1500 м
[Sc]
+5.9 -4.2 48 +2 +5 1015.5 953.3
06 25.04 З 3 50 км 8/8 1500 м
[Sc]
+7.1 -4.7 43 +5 +6 1014.2 952.3

 

Местоположение метеостанции Усть-Нера (Якутия, Россия): широта 64.53 долгота 143.10 высота над уровнем моря 519 м.

В архиве по умолчанию представлена погода в Усть-Нере за последнюю неделю. Архивные данные за месяц целиком и за предыдущие месяцы, начиная с января 2011 года, Вы можете получить, выбрав интересующий диапазон дат из раскрывающегося списка и нажав кнопку "Ввод!".

Внимание! Время в таблицах - всемирное. Для получения местного времени необходимо прибавить поправку, которая в Усть-Нере равна 10 ч.

Смотрите также архив погоды в соседних городах и на ближайших метеорологических станциях:

Погода в Юртах (Якутия, Россия) (82 км)
Погода в Оймяконе (Якутия, Россия) (142 км)
Погода в Делянкире (Якутия, Россия) (144 км)
Погода в Агаякане (Якутия, Россия) (150 км)
Погода в Усть-Моме (Якутия, Россия) (214 км)
Погода в Восточной (Якутия, Россия) (224 км)
Погода в Сусумане (Магаданская область, Россия) (314 км)
Погода в Иэме (Якутия, Россия) (355 км)
Погода в Томпо (Якутия, Россия) (359 км)
Погода в Теплом Ключе (Якутия, Россия) (367 км)

Пояснения к столбцам:

Ветер - указаны скорость ветра в м/с - средняя за 10 мин, порывы в срок и между сроками (в фигурных скобках) и направление, откуда дует ветер: С - северный, СВ - северо-восточный, В - восточный, ЮВ - юго-восточный, Ю - южный, ЮЗ - юго-западный, З - западный, СЗ - северо-западный.
Видимость - горизонтальная дальность видимости в метрах или километрах. При видимости от 1 до 10 км при отсутствии осадков обычно наблюдается дымка, при ухудшении видимости до 1 км и менее - туман. В сухую погоду видимость может ухудшаться дымом, пылью или мглою.
Явления - указаны атмосферные явления, наблюдавшиеся в срок или в последний час перед сроком; фигурными скобками обозначены явления, наблюдавшиеся между сроками (за 1-3 часа до срока); квадратными скобками обозначены град или гололедные отложения с указанием их диаметра в мм.
Облачность - указаны через наклонную черту общая и нижняя облачность в баллах и высота нижней границы облаков в метрах; квадратными скобками обозначены формы облаков: Ci - перистые, Cs - перисто-слоистые, Cc - перисто-кучевые, Ac - высококучевые, As - высокослоистые, Sc - слоисто-кучевые, Ns - слоисто-дождевые, Cu - кучевые, Cb - кучево-дождевые. Подробнее классификацию облаков см. в Атласе облаков (PDF).
T - Температура воздуха - температура, измеренная на высоте 2 м над землей.
Td - Температура точки росы - температура, при понижении до которой содержащийся в воздухе водяной пар достигнет насыщения.
f - Относительная влажность воздуха - влажноcть воздуха, измеренная на высоте 2 м над землей.
Te - Эффективная температура - температура, которую ощущает одетый по сезону человек в тени. Характеристика душности погоды. При расчете учитывается влияние влажности воздуха и скорости ветра на теплоощущения человека.
Tes - Эффективная температура на солнце - температура, которую ощущает человек, с поправкой на солнечный нагрев. Характеристика знойности погоды. Зависит от высоты солнца над горизонтом, облачности и скорости ветра. Ночью, в пасмурную погоду, а также при ветре 12 м/с и более поправка равна нулю.
P - Атмосферное давление - приведенное к уровню моря атмосферное давление.
Po - Атмосферное давление - измеренное на уровне метеостанции атмосферное давление.
Tmin - Минимальная температура - минимум температуры воздуха на высоте 2 м над землей.
Tmax - Максимальная температура - максимум температуры воздуха на высоте 2 м над землей.
R - Количество осадков - Количество выпавших осадков за период времени, мм. При наведении курсора мыши на число - период времени, за который выпало указанное количество осадков.
R24 - Количество осадков - Количество выпавших осадков за 24 часа, мм.
S - Снежный покров - Высота снежного покрова, см. При наведении курсора мыши на число - состояние снежного покрова и степень покрытия местности в баллах.